This is the latest recevied weather packets stored in our database for station/object DM4XI-13. If no packets are shown the sender has not sent any weather packets the latest 10 day(s).
| Time | Temp. | Humidity | Pressure | Rain* | Wind** | Luminosity | Snow |
|---|---|---|---|---|---|---|---|
| 1777182334 | 8.33° C | 67% | 1019.9 hPa | 0 mm | 1.79 m/s, 337° | 109 W/m² | - |
| 1777182273 | 8.33° C | 67% | 1019.9 hPa | 0 mm | 0.89 m/s, 329° | 107 W/m² | - |
| 1777182212 | 8.33° C | 66% | 1019.7 hPa | 0 mm | 2.24 m/s, 343° | 106 W/m² | - |
| 1777182152 | 8.33° C | 66% | 1019.8 hPa | 0 mm | 2.24 m/s, 324° | 104 W/m² | - |
| 1777182090 | 8.33° C | 66% | 1019.8 hPa | 0 mm | 0.89 m/s, 318° | 102 W/m² | - |
| 1777182029 | 8.33° C | 66% | 1019.5 hPa | 0 mm | 0.89 m/s, 320° | 100 W/m² | - |
| 1777181968 | 7.78° C | 65% | 1019.7 hPa | 0 mm | 0.89 m/s, 283° | 99 W/m² | - |
| 1777181908 | 7.78° C | 66% | 1019.6 hPa | 0 mm | 0.45 m/s, 102° | 105 W/m² | - |
| 1777181846 | 7.78° C | 66% | 1019.7 hPa | 0 mm | 0.45 m/s, 321° | 96 W/m² | - |
| 1777181785 | 7.78° C | 66% | 1019.8 hPa | 0 mm | 0.89 m/s, 279° | 103 W/m² | - |
| 1777181724 | 7.78° C | 65% | 1019.7 hPa | 0 mm | 0.89 m/s, 321° | 92 W/m² | - |
| 1777181663 | 7.78° C | 65% | 1019.6 hPa | 0 mm | 0.89 m/s, 8° | 90 W/m² | - |
| 1777181602 | 7.78° C | 65% | 1019.6 hPa | 0 mm | 0.89 m/s, 3° | 89 W/m² | - |
| 1777181541 | 7.78° C | 65% | 1019.7 hPa | 0 mm | 0.89 m/s, 252° | 88 W/m² | - |
| 1777181480 | 7.78° C | 65% | 1019.7 hPa | 0 mm | 0.45 m/s, 307° | 86 W/m² | - |
| 1777181419 | 7.78° C | 65% | 1019.7 hPa | 0 mm | 0.45 m/s, 301° | 85 W/m² | - |
| 1777181358 | 7.78° C | 65% | 1019.5 hPa | 0 mm | 1.79 m/s, 23° | 83 W/m² | - |
| 1777181297 | 7.78° C | 65% | 1019.6 hPa | 0 mm | 1.34 m/s, 328° | 81 W/m² | - |
| 1777181236 | 7.78° C | 64% | 1019.5 hPa | 0 mm | 0.89 m/s, 6° | 79 W/m² | - |
| 1777181175 | 7.78° C | 64% | 1019.4 hPa | 0 mm | 0.45 m/s, 2° | 79 W/m² | - |
| 1777181114 | 7.78° C | 64% | 1019.6 hPa | 0 mm | 1.34 m/s, 343° | 77 W/m² | - |
| 1777181053 | 7.78° C | 64% | 1019.6 hPa | 0 mm | 0.45 m/s, 332° | 75 W/m² | - |
| 1777180992 | 7.22° C | 64% | 1019.5 hPa | 0 mm | 0 m/s | 74 W/m² | - |
| 1777180931 | 7.22° C | 64% | 1019.5 hPa | 0 mm | 0.45 m/s, 60° | 72 W/m² | - |
| 1777180871 | 7.22° C | 64% | 1019.4 hPa | 0 mm | 0.45 m/s, 343° | 71 W/m² | - |
* Rain latest hour (hover to see other rain measurements)
** Current wind speed in m/s (hover to see current wind gust speed)